This demonstration page uses our WeatherBlox Daily Observations layout. Learn more.

Left ArrowRight Arrow

36.19886, -115.1175

Hourly Observations for August 8, 2017

Temp ( °F °C ) Dew Point ( °F °C ) Humidity (%) Winds ( mph kmh ) Pressure ( in mb ) Visibility ( mi km ) Precip ( " mm )
12:53 am 00:53 Clear 88 31.1 40 4.4 18 18 N N/A 29.83 1010 10 16 N/A
1:53 am 01:53 Clear 85 29.4 43 6.1 23 23 NW 7 11 29.82 1010 10 16 N/A
2:53 am 02:53 Clear 84 28.9 42 5.6 23 23 NNW 7 11 29.83 1010 10 16 N/A
3:53 am 03:53 Clear 83 28.3 42 5.6 24 24 N 5 7 29.85 1011 10 16 N/A
4:53 am 04:53 Clear 82 27.8 44 6.7 26 26 NW 6 9 29.86 1011 10 16 N/A
5:53 am 05:53 Clear 81 27.2 44 6.7 27 27 WNW 6 9 29.87 1012 10 16 N/A
6:53 am 06:53 Sunny 82 27.8 41 5 23 23 N 6 9 29.89 1012 10 16 N/A
7:53 am 07:53 Sunny 87 30.6 42 5.6 21 21 NE 3 6 29.90 1013 10 16 N/A
8:53 am 08:53 Sunny 90 32.2 41 5 18 18 E 3 6 29.91 1013 10 16 N/A
9:53 am 09:53 Sunny 92 33.3 46 7.8 21 21 E 8 13 29.91 1013 10 16 N/A
10:53 am 10:53 Sunny 95 35 37 2.8 13 13 ESE 8 13 29.90 1013 10 16 N/A
11:53 am 11:53 Sunny 97 36.1 35 1.7 11 11 SE 6 9 29.88 1012 10 16 N/A
12:53 pm 12:53 Sunny 99 37.2 37 2.8 12 12 VRB 7 11 29.86 1011 10 16 N/A
1:53 pm 13:53 Sunny 101 38.3 37 2.8 11 11 SSE 13 20 29.84 1011 10 16 N/A
2:53 pm 14:53 Sunny 102 38.9 38 3.3 11 11 SE 14 22 29.81 1010 10 16 N/A
3:53 pm 15:53 Sunny 102 38.9 40 4.4 12 12 E 14 22 29.79 1009 10 16 N/A
4:53 pm 16:53 Sunny 103 39.4 40 4.4 11 11 E 8 13 29.77 1008 10 16 N/A
5:53 pm 17:53 Sunny 103 39.4 39 3.9 11 11 SE 9 15 29.75 1008 10 16 N/A
6:53 pm 18:53 Sunny 101 38.3 39 3.9 12 12 SSE 17 28 29.75 1008 10 16 N/A
7:53 pm 19:53 Clear 99 37.2 40 4.4 13 13 SSE 15 24 29.76 1008 10 16 N/A
8:53 pm 20:53 Clear 97 36.1 39 3.9 13 13 SSE 15 24 29.77 1008 10 16 N/A
9:53 pm 21:53 Clear 96 35.6 40 4.4 14 14 W 12 19 29.78 1009 10 16 N/A
10:53 pm 22:53 Clear 94 34.4 40 4.4 15 15 SSW 8 13 29.80 1009 10 16 N/A
11:53 pm 23:53 Clear 92 33.3 38 3.3 15 15 WSW 7 11 29.80 1009 10 16 N/A

Powered by AerisWeather